RH
2 2 2 2 3 2 3 3 5 9 11 13 10 8 7 5 8 9 10 7 9 18 15 17 20 19 25 26 25 29 35 41 51 51 53 69 67 64 65 57 49 40 39 41 40 44 47 47 45 42 39 37 36 33 32 33 35 34 30 25 23 24 25 25 26 26 26 26 27 27 25 24 23 24 23 21 18 12 13 16 12 6 6 8 10 14 16 17 23 26 24 23 23 24 23 23 23
1 2 2 2 2 3 6 4 8 15 19 19 11 8 8 7 7 9 15 12 16 29 24 21 24 24 33 37 36 33 35 41 42 45 52 61 61 61 63 57 49 43 42 41 41 45 49 49 47 44 40 38 36 33 32 34 38 36 30 26 24 26 28 27 27 25 25 26 27 28 26 25 23 23 25 24 21 12 8 12 15 11 6 7 9 12 15 17 20 25 25 23 24 24 23 23 23
2 2 1 3 1 3 10 7 8 15 22 20 10 8 12 10 9 15 23 25 25 30 30 30 27 28 32 32 40 39 35 39 39 47 49 52 60 61 60 55 47 46 47 43 43 48 53 52 49 45 41 40 37 34 34 35 38 36 31 27 27 29 29 27 25 23 23 27 28 30 29 28 26 27 30 30 26 16 6 6 13 16 11 7 8 10 13 16 18 22 25 24 23 24 22 22 23
3 2 2 3 1 4 14 13 8 16 21 17 11 9 12 14 16 21 25 29 29 27 29 32 28 29 31 30 41 41 34 36 41 51 49 48 60 64 58 54 51 49 49 48 48 53 58 56 51 47 43 40 38 36 35 37 38 37 34 30 30 31 29 25 22 21 23 28 29 30 30 30 32 34 37 39 34 23 10 2 8 17 18 13 9 8 11 15 17 19 23 24 23 23 23 22 23
4 3 3 3 3 5 14 18 13 18 18 12 12 9 11 19 21 23 25 26 27 26 26 29 28 31 36 34 38 39 36 38 43 49 48 48 52 61 63 59 61 59 57 55 52 58 63 59 54 50 45 42 40 38 37 39 38 37 36 33 32 30 27 23 20 22 24 28 29 29 32 36 40 44 49 52 47 35 18 3 5 16 21 20 14 9 8 12 16 18 20 24 23 23 23 22 22
6 5 5 4 7 10 15 20 19 18 12 9 13 8 12 24 26 26 26 25 25 24 23 31 33 36 41 40 43 47 47 47 50 51 47 52 55 66 77 79 81 70 60 53 50 60 66 63 57 52 48 44 42 39 39 40 39 37 36 34 32 28 24 20 21 25 26 29 31 32 37 44 49 56 62 66 64 51 29 8 5 16 23 22 20 17 10 8 13 17 18 21 23 23 23 22 22
7 7 6 6 11 15 19 20 18 17 10 11 14 9 15 24 25 26 26 24 25 23 23 33 38 38 43 47 52 56 58 56 57 56 50 62 75 83 89 91 86 66 53 50 52 60 66 65 60 57 53 48 45 42 41 41 40 38 36 34 31 25 22 23 26 28 29 31 33 36 41 49 57 64 69 73 76 68 46 19 8 16 23 23 22 24 20 14 9 13 18 19 22 23 22 23 22
7 8 7 7 13 15 18 17 14 14 9 11 15 11 15 18 18 19 22 21 23 24 23 31 35 37 43 48 54 59 60 59 58 54 53 64 71 79 80 72 67 59 56 56 56 60 63 66 65 66 61 51 47 46 44 43 41 39 38 35 27 24 26 29 30 30 32 32 34 37 42 51 60 65 69 73 78 78 64 37 18 18 22 24 22 23 27 26 15 9 14 18 20 22 23 22 22
6 10 10 9 16 18 18 18 15 13 8 9 12 11 12 15 14 15 19 17 18 21 23 28 32 38 47 51 56 60 60 60 57 50 55 65 67 78 77 58 56 61 60 57 56 59 63 68 70 72 68 55 49 50 49 46 43 41 39 33 28 29 32 32 32 32 33 34 33 34 37 48 61 63 65 73 79 80 76 57 37 28 24 23 20 19 23 30 27 13 9 15 19 20 22 22 22
6 12 17 18 23 25 23 21 16 13 11 9 9 9 10 13 13 13 16 16 15 15 24 32 32 35 44 55 59 59 61 59 54 52 59 66 68 78 72 53 58 68 63 62 61 60 65 69 69 71 70 60 53 52 51 48 44 42 39 36 37 37 36 33 34 36 36 35 31 28 30 41 56 59 59 69 78 77 80 76 62 48 36 30 24 20 18 23 31 26 11 9 17 20 20 22 22
6 12 20 22 24 26 23 20 16 13 12 10 9 8 8 11 11 12 13 14 12 12 27 36 34 34 37 47 54 57 58 52 51 56 59 63 67 70 62 48 59 73 72 69 63 60 66 68 65 68 70 63 57 54 52 49 46 45 46 46 45 41 39 38 39 40 38 33 28 26 29 36 47 54 54 61 72 74 78 84 81 70 55 44 36 30 26 21 25 30 23 9 10 18 20 20 22
9 15 20 20 19 20 18 16 14 12 11 10 9 9 8 9 9 11 11 11 10 10 24 31 27 28 29 36 44 52 52 47 52 58 60 64 67 67 59 51 56 66 72 72 64 64 70 68 65 69 71 66 62 59 56 56 56 57 56 53 47 44 44 43 45 43 35 29 28 28 31 36 42 48 50 54 64 71 76 82 84 83 77 67 55 46 38 30 26 26 28 19 8 11 19 20 21
13 19 22 21 19 18 16 15 14 12 11 10 9 8 8 9 9 10 9 10 9 7 15 21 20 21 26 35 43 50 49 46 52 58 61 62 64 63 59 58 56 58 71 74 67 69 72 68 66 71 73 71 68 65 65 65 64 62 57 51 49 50 51 48 48 43 36 32 31 32 36 38 40 46 53 59 66 71 75 77 77 77 78 75 69 62 51 41 35 31 29 25 17 9 12 19 21
15 20 21 21 20 19 18 16 15 13 11 10 9 9 8 9 9 10 9 10 7 10 21 23 24 29 32 39 46 49 47 46 49 54 57 59 64 64 65 68 61 64 77 75 70 71 69 67 65 68 71 71 72 70 70 68 64 59 52 51 53 55 54 48 45 41 40 39 36 36 37 37 39 45 55 64 71 75 77 77 75 72 68 63 60 64 64 52 41 40 39 32 24 16 10 14 20
14 18 19 19 18 16 17 15 15 14 11 10 9 10 9 9 10 10 10 10 7 13 27 28 29 38 39 42 49 50 48 46 47 52 56 58 58 62 73 75 70 75 77 71 73 72 65 65 63 61 64 66 72 74 72 69 63 58 52 51 52 51 48 43 42 43 45 47 43 37 34 36 38 42 50 59 68 76 81 77 72 69 65 59 51 54 65 60 44 40 46 44 30 21 16 11 15
16 19 19 18 17 16 16 14 14 13 11 10 10 10 9 10 11 11 10 11 10 10 19 30 36 38 36 42 51 51 51 48 44 51 57 56 57 64 73 73 75 75 70 70 71 68 62 59 57 56 59 59 63 69 72 71 65 57 49 47 45 46 49 44 42 46 49 51 46 36 34 40 38 39 47 56 66 78 82 75 67 65 63 59 51 48 57 60 49 37 39 50 39 21 19 16 13
19 20 20 19 18 18 16 13 13 12 11 10 11 12 11 12 12 12 13 13 14 11 12 28 40 36 34 42 46 44 48 49 44 47 50 57 68 72 72 73 77 71 68 74 68 64 62 56 54 56 57 53 54 62 66 64 63 57 45 39 39 42 49 46 43 48 51 50 47 39 37 41 40 44 52 60 70 79 81 80 78 73 64 57 50 49 56 56 47 37 30 43 47 24 18 23 18
20 20 19 19 18 16 13 13 13 12 10 11 12 13 13 13 13 12 15 15 16 18 15 22 36 38 38 42 40 38 43 46 45 45 47 65 82 80 75 73 73 74 75 75 66 62 62 56 56 57 56 55 56 61 61 60 59 56 49 44 41 39 43 45 47 54 55 55 56 48 42 41 44 51 57 65 72 76 78 83 88 83 71 59 53 50 54 51 38 31 24 32 45 30 17 25 26
19 18 19 18 16 12 10 12 13 12 11 11 11 12 14 13 13 12 13 15 17 24 24 21 33 37 36 38 37 37 39 45 48 46 49 63 73 73 79 78 74 78 76 72 66 61 58 55 56 56 54 54 55 56 56 56 53 52 57 56 49 45 46 49 53 57 56 57 59 55 50 48 49 51 56 65 70 72 72 74 82 86 79 67 59 52 49 50 40 28 22 25 38 34 18 21 31
17 17 19 18 16 13 12 13 12 11 11 12 12 12 15 13 13 12 12 15 17 23 26 23 31 34 30 30 31 33 38 45 45 44 54 60 56 56 66 74 80 82 74 69 66 60 57 55 53 53 52 50 49 49 48 47 46 47 55 54 46 42 43 49 53 51 53 57 57 55 56 59 58 53 56 63 67 69 68 67 73 82 83 77 71 60 52 55 48 30 19 19 28 32 22 17 25
16 17 18 17 17 16 15 13 12 11 11 12 13 12 14 14 12 13 13 16 18 21 28 28 29 31 28 27 27 30 35 42 43 43 54 60 54 54 54 60 81 90 75 66 65 63 63 60 56 54 52 50 50 50 47 44 43 44 50 50 42 35 37 47 51 49 55 62 58 54 55 59 60 59 60 59 57 60 63 64 69 75 78 78 76 68 63 65 62 45 26 17 19 26 25 17 17
15 17 18 17 16 15 14 13 12 11 12 12 13 13 13 13 12 13 13 14 16 18 27 30 32 40 38 31 27 28 33 39 44 43 45 52 50 54 55 51 70 86 75 63 62 63 64 63 61 57 55 53 52 51 48 47 46 46 48 48 44 40 41 48 51 51 57 60 58 56 56 58 61 62 62 59 55 57 63 66 65 66 68 71 74 75 73 73 74 65 44 25 19 24 26 21 18
14 16 17 17 16 15 13 12 12 12 13 12 12 12 12 13 12 13 12 13 15 16 22 27 40 57 50 37 32 33 38 39 45 44 44 52 52 53 52 50 63 75 73 67 62 61 61 63 62 57 56 54 51 52 52 50 46 46 48 47 48 48 45 47 51 54 56 57 56 58 59 61 64 63 62 61 60 63 69 71 68 64 64 67 73 77 76 75 76 72 58 39 27 28 28 22 19
14 15 15 15 14 14 13 12 12 12 12 12 13 12 11 12 12 12 11 14 15 17 22 25 41 58 52 43 41 41 42 43 47 47 49 56 57 56 48 49 67 75 76 72 64 62 62 65 63 57 56 52 51 54 52 51 48 46 47 46 47 47 46 47 54 58 60 61 59 62 65 62 65 70 70 67 65 70 74 71 68 68 65 63 66 73 76 78 79 74 65 51 39 37 33 22 15
14 14 13 14 13 13 13 12 11 11 12 13 13 12 11 10 12 12 11 17 16 18 24 24 36 50 50 50 50 47 45 46 47 45 49 53 54 57 51 48 59 71 77 72 66 67 68 68 63 59 58 52 50 46 39 41 41 40 43 41 38 42 47 49 57 63 64 66 64 65 66 61 64 72 74 76 75 75 79 73 67 67 63 59 63 71 76 79 83 80 71 60 49 45 37 26 17
13 13 13 13 12 12 12 12 11 12 12 12 12 12 12 10 14 11 14 30 28 23 27 28 41 53 52 52 54 52 49 48 45 40 42 49 54 55 52 45 45 61 72 72 75 73 69 66 60 58 55 47 44 37 32 35 30 28 32 31 36 47 52 51 56 63 64 66 69 71 69 64 65 66 68 78 78 68 71 71 66 66 63 59 61 68 73 75 81 83 75 66 57 47 39 32 28
12 12 13 12 12 13 12 12 11 12 12 12 12 12 13 12 15 12 14 34 35 29 35 36 44 53 52 54 56 54 52 50 46 43 41 50 60 52 43 36 35 54 68 72 76 70 65 65 61 57 49 39 35 30 29 31 24 22 23 24 34 45 51 55 59 63 65 69 72 70 67 66 69 67 66 71 69 58 58 61 62 64 63 58 55 60 69 73 79 81 76 73 67 55 42 35 31
13 11 13 12 13 12 12 12 10 12 12 12 12 11 14 13 14 14 13 25 32 34 41 40 40 43 46 50 52 50 50 51 50 50 48 53 59 48 37 32 31 50 69 72 71 67 61 55 52 48 39 31 25 22 21 22 23 24 27 30 31 33 41 53 61 65 67 68 65 63 65 70 74 72 69 68 63 57 54 53 54 58 59 56 53 58 68 75 78 78 78 76 73 64 48 39 37
13 12 12 12 13 13 12 12 10 12 12 11 13 13 14 13 13 14 14 24 34 39 41 39 39 38 38 42 43 44 46 50 51 52 54 56 59 54 44 35 31 43 64 70 69 67 51 40 40 31 24 22 18 19 18 19 22 23 26 31 30 32 41 50 59 65 67 65 61 63 70 74 75 69 65 61 56 56 52 45 46 52 55 54 54 62 68 72 75 74 76 76 73 66 48 42 46
13 12 12 13 15 14 13 14 12 11 12 12 13 14 13 14 14 13 19 31 37 39 39 39 42 40 39 42 43 44 45 48 52 54 57 58 61 62 48 35 32 36 48 52 52 54 43 42 43 26 19 21 18 19 18 18 19 17 18 22 27 33 43 50 59 67 69 68 63 61 63 66 68 66 63 57 54 60 52 39 40 46 50 51 54 62 67 68 69 70 73 75 76 72 56 51 54
14 13 13 14 14 13 12 14 14 12 12 13 13 14 14 13 13 14 22 32 33 34 39 40 42 43 42 44 45 42 42 50 56 56 60 59 57 56 46 37 34 33 41 37 30 33 31 35 35 24 24 24 21 22 21 19 18 17 16 19 26 31 39 49 58 66 68 67 62 59 58 58 62 66 69 66 67 69 52 41 46 47 48 52 56 62 66 67 68 70 72 73 76 77 71 65 64
17 15 13 14 14 12 11 12 13 13 12 13 13 14 14 13 16 20 22 28 29 32 41 42 39 42 42 41 42 42 45 53 55 56 61 60 52 47 46 41 33 33 37 31 23 24 23 24 24 23 25 23 25 26 24 23 20 18 17 18 23 29 38 47 54 63 67 67 65 64 62 61 65 69 70 70 70 66 53 50 54 54 53 54 58 63 64 66 68 72 72 72 74 75 74 71 69
17 17 15 14 14 12 12 11 12 13 11 12 13 14 12 12 20 26 25 28 28 28 37 39 35 37 37 36 41 46 49 47 46 54 62 61 52 46 43 36 33 37 34 26 24 23 21 21 22 23 24 24 27 26 25 27 26 25 23 20 20 22 30 38 48 59 65 67 69 70 66 64 68 68 67 65 63 59 55 55 53 56 61 61 61 61 60 61 64 70 71 71 73 72 70 71 70
16 17 15 14 13 12 13 12 12 12 12 13 14 13 12 13 21 24 23 24 23 22 28 31 34 37 33 34 41 45 44 38 37 49 57 54 48 43 38 33 35 39 32 24 24 21 20 21 22 24 26 27 26 25 25 27 30 31 29 26 22 19 21 24 34 47 54 58 63 65 65 67 69 68 69 66 64 61 59 59 57 58 65 66 62 58 57 57 56 59 62 65 72 74 74 73 72
22 22 19 17 15 13 12 11 12 12 12 14 15 14 13 15 20 20 18 19 18 20 22 26 35 38 34 36 39 38 39 38 37 45 50 48 45 42 39 36 38 40 33 26 24 23 23 23 24 26 27 27 26 26 26 27 31 31 30 29 23 18 17 16 18 25 32 41 53 60 65 73 74 71 70 67 69 70 68 68 66 62 64 61 56 54 56 55 51 51 54 60 68 75 78 77 78
26 25 23 22 19 14 12 12 12 12 13 14 14 14 14 15 17 16 16 17 17 18 19 26 35 38 37 36 34 31 36 41 41 42 46 48 49 46 42 39 38 38 33 29 29 29 26 24 26 28 29 29 28 29 27 29 34 33 31 32 26 16 11 13 15 15 16 22 36 49 58 67 71 71 70 69 72 72 70 69 67 64 63 58 56 55 54 51 48 51 58 61 67 78 82 81 85
27 24 23 21 19 15 13 12 12 14 13 13 14 14 14 14 14 14 15 17 17 15 18 25 34 37 36 32 30 29 33 42 44 41 42 46 48 48 45 41 37 33 31 33 35 34 29 26 28 30 31 31 30 31 31 35 37 33 31 34 33 21 9 10 13 14 15 16 20 29 37 46 55 60 59 61 64 63 61 59 57 56 55 56 59 59 53 50 51 57 65 66 72 86 88 85 87
25 23 22 19 18 17 15 14 14 15 14 14 15 15 15 14 14 15 15 17 16 15 18 21 26 32 35 32 32 31 34 42 44 42 43 46 47 48 46 42 37 34 33 36 38 36 31 27 29 32 33 34 33 33 35 40 39 34 33 37 37 27 13 10 11 11 14 16 17 18 20 26 34 40 43 48 53 54 53 51 49 45 43 46 51 52 48 50 59 67 72 74 81 89 87 85 88
22 21 21 20 18 17 16 15 15 16 15 16 17 17 16 15 16 16 16 16 17 16 18 18 20 28 34 35 33 33 38 42 41 42 45 46 47 46 45 42 39 39 38 38 38 37 32 28 30 33 34 35 36 35 38 42 42 38 38 39 41 34 18 10 10 12 12 13 15 14 14 16 20 25 30 35 37 35 35 38 39 36 34 35 38 42 46 56 65 66 68 75 82 85 83 83 87
23 21 19 19 18 17 18 17 18 19 18 17 17 17 16 15 16 16 16 17 17 17 18 17 19 21 26 33 35 37 42 41 40 43 43 45 48 47 47 44 42 42 41 41 39 36 33 29 31 35 38 38 37 37 39 44 45 43 42 43 46 40 23 11 9 10 12 12 13 13 13 13 14 16 17 17 18 16 16 20 23 23 23 24 27 34 49 62 60 53 60 72 78 81 83 84 86
21 19 18 18 17 17 19 20 21 20 20 20 17 17 15 15 16 16 17 18 17 18 19 18 19 19 22 33 39 41 44 42 40 41 41 41 44 47 48 47 44 42 41 41 39 37 35 34 36 40 42 40 39 40 42 47 46 45 48 49 49 43 25 14 9 8 11 12 13 14 13 13 13 14 14 14 13 13 13 13 14 15 16 17 19 22 32 43 40 35 43 55 62 68 74 79 81
20 18 19 18 14 16 18 21 24 21 22 22 19 24 23 16 15 16 17 16 16 19 20 18 20 21 23 28 33 36 40 43 43 45 46 47 49 52 53 50 48 44 42 43 42 40 38 36 39 44 44 42 43 44 45 49 47 46 51 51 51 46 28 15 11 9 12 13 14 15 14 15 15 15 16 15 15 14 13 13 13 14 13 13 15 14 16 18 18 18 20 25 32 38 45 51 55
23 21 22 21 17 17 18 20 24 22 23 24 23 30 30 21 17 17 18 16 16 19 19 18 20 23 23 24 27 29 34 43 49 53 54 54 54 54 53 51 52 52 48 47 47 44 40 38 38 40 43 44 47 51 51 52 51 49 52 52 53 46 28 17 14 9 11 13 15 16 16 17 17 17 17 16 17 15 14 14 13 13 13 12 12 12 12 11 10 11 10 12 15 19 25 31 39
24 24 23 24 21 20 21 21 23 22 22 25 26 27 28 26 22 20 20 19 18 19 18 19 20 23 23 24 28 30 33 36 39 42 42 42 44 44 45 48 52 56 56 53 51 45 38 38 39 38 40 45 51 57 56 55 56 53 51 52 54 45 27 20 16 9 9 11 13 15 15 16 16 16 16 15 16 16 15 15 15 14 14 14 13 12 13 12 11 11 11 10 11 14 19 28 40
21 22 23 24 23 23 23 22 23 20 21 25 25 25 28 28 22 20 21 19 19 20 19 20 20 24 25 24 26 28 32 33 32 34 33 33 39 41 44 48 52 58 62 60 56 53 48 46 47 45 45 50 55 61 60 57 57 55 52 51 52 43 28 23 18 9 7 8 9 12 13 14 14 14 14 14 15 16 16 16 16 17 16 16 16 15 14 14 13 12 11 11 10 11 12 18 29
20 22 24 24 24 24 23 26 25 21 25 28 25 24 29 30 23 20 22 20 21 22 21 22 23 25 25 25 27 29 34 39 40 42 43 42 42 45 49 52 54 58 62 61 57 59 58 52 53 54 54 55 58 64 65 59 57 57 54 51 50 42 29 24 19 9 6 7 7 10 11 11 11 11 11 11 12 13 14 16 17 17 18 18 18 17 17 16 15 14 13 12 12 12 11 11 13
21 21 23 23 25 25 25 27 22 25 36 33 25 24 28 34 29 22 23 23 22 22 22 25 26 26 25 26 32 36 40 44 43 46 52 54 52 55 59 59 58 60 64 64 56 52 55 55 57 63 66 62 61 68 68 62 60 60 57 53 50 43 31 24 18 9 6 7 7 9 10 10 11 11 10 10 10 10 11 13 15 16 17 18 18 18 18 17 16 16 16 15 15 14 14 14 12
20 22 23 23 26 26 27 27 23 35 48 36 25 25 28 34 31 23 23 23 22 23 22 25 27 26 26 27 31 36 39 42 45 50 56 58 60 63 63 59 56 55 54 55 49 44 51 58 57 59 70 70 64 68 70 63 65 65 60 57 51 42 32 24 17 10 7 7 8 10 11 12 13 13 13 12 10 9 9 10 12 13 14 15 16 16 15 15 15 15 15 15 15 15 15 16 16
19 22 22 23 25 29 36 38 36 43 44 32 27 31 33 33 27 23 24 22 22 23 22 25 27 26 27 27 28 32 35 37 41 45 48 51 56 59 56 50 44 39 34 34 35 34 36 42 40 39 57 71 67 69 71 66 71 73 64 59 52 41 33 26 19 14 12 11 11 13 14 14 14 14 14 14 12 11 10 9 10 10 11 12 12 12 11 11 11 11 11 11 11 12 12 12 13
18 18 19 23 26 37 47 45 42 43 37 29 29 34 36 32 26 25 25 24 24 23 23 25 26 27 28 28 28 30 31 33 35 37 38 40 44 45 43 37 31 26 24 25 27 27 25 31 39 42 55 71 70 71 75 74 77 78 69 58 49 40 33 27 21 18 17 17 16 16 16 15 15 15 15 14 14 14 13 12 11 10 10 10 10 10 11 10 10 11 11 11 11 11 11 11 11
17 16 18 20 21 36 47 43 42 44 36 28 29 34 35 32 30 29 25 26 27 25 27 27 27 28 29 30 31 31 32 32 34 36 36 35 33 31 29 28 26 23 24 25 23 28 38 46 55 60 66 77 78 74 76 80 81 80 71 58 47 40 34 28 22 20 20 20 19 19 20 22 23 23 22 19 17 15 14 13 13 13 12 12 12 12 13 13 13 13 13 13 12 12 11 11 11
17 17 19 20 20 27 33 33 33 32 32 33 31 30 29 31 34 30 26 28 28 28 30 29 30 32 32 34 34 35 36 35 35 36 33 30 26 25 25 23 24 23 22 23 23 38 65 74 68 67 70 78 83 77 72 75 78 81 75 59 46 41 36 29 23 22 24 24 23 23 26 31 34 36 35 33 30 25 20 16 14 14 15 15 17 19 21 23 24 26 28 28 27 25 23 20 17
17 17 18 20 23 23 26 31 30 27 37 41 30 24 25 28 32 28 26 29 28 29 31 30 33 36 36 37 35 37 41 39 39 37 32 27 23 23 24 21 22 21 20 28 43 61 77 76 67 68 71 76 84 82 74 70 73 80 78 63 52 47 40 32 25 23 27 28 26 27 31 36 39 41 42 42 42 40 35 29 24 21 21 22 25 28 31 36 39 42 44 45 45 44 44 42 38
18 17 18 18 21 23 26 33 34 33 42 39 25 23 25 26 28 28 28 31 29 28 30 30 32 35 35 36 36 37 39 38 38 33 26 23 21 20 21 19 20 21 20 30 54 75 80 72 69 72 70 71 83 87 79 72 73 79 80 71 63 55 45 38 31 26 27 28 28 29 33 38 40 41 43 44 44 44 44 43 41 38 35 34 35 37 40 44 47 49 51 52 52 52 52 52 51
18 17 17 16 19 23 24 28 35 39 43 39 28 24 23 24 28 29 28 31 29 27 28 28 29 30 31 34 36 35 35 34 29 24 20 19 19 19 19 19 20 23 24 25 38 63 79 80 78 76 70 67 78 87 83 75 73 78 82 78 72 66 56 47 39 31 28 28 28 30 33 36 37 39 41 43 44 45 46 46 47 48 47 46 46 46 47 49 50 52 53 53 54 54 55 55 55
18 17 17 14 17 22 21 22 28 35 42 43 36 32 30 29 29 27 27 29 29 28 27 27 28 30 32 34 35 34 35 32 22 18 19 17 17 17 17 20 22 25 29 30 36 52 68 76 75 73 69 66 72 80 81 77 73 73 80 82 78 75 69 59 49 39 33 31 29 31 34 35 40 46 44 42 42 43 44 46 46 48 49 49 50 50 50 51 51 52 53 54 54 54 55 56 57
18 20 18 17 20 22 24 24 22 29 41 44 45 48 41 32 30 29 27 28 30 29 29 30 32 33 34 36 36 37 38 32 21 19 19 18 19 19 18 19 22 24 27 32 38 43 52 66 74 75 71 65 65 69 72 78 76 69 75 83 80 77 75 68 61 52 43 37 34 37 41 45 54 61 58 52 49 46 44 42 42 45 47 47 49 50 52 52 52 53 53 54 55 55 56 56 57
18 19 18 21 24 22 32 42 32 28 36 39 48 57 42 28 31 31 28 29 30 32 34 35 38 37 36 39 40 41 40 31 22 20 21 21 22 23 22 20 20 22 24 28 33 37 40 49 59 63 62 62 65 65 66 74 76 69 72 79 79 78 76 70 66 63 59 52 46 42 42 45 50 56 58 57 56 56 54 49 46 44 44 45 47 47 48 49 50 52 53 54 55 56 56 57 57
Wind_Speed
8 8 9 10 10 8 8 9 9 9 7 7 11 17 19 14 13 14 17 17 6 3 5 6 8 3 2 3 6 8 10 13 11 8 5 7 9 12 12 11 12 12 12 12 13 15 13 13 13 13 13 12 12 11 12 12 11 10 9 9 9 9 7 6 6 6 6 6 6 5 4 4 3 3 4 4 3 5 7 10 13 17 20 21 21 22 24 26 28 28 28 28 27 26 26 25 25
8 9 9 10 11 10 9 10 7 6 7 10 16 17 14 9 11 17 13 7 5 11 7 8 8 4 3 2 7 11 12 13 16 12 4 3 6 11 14 12 12 12 12 13 14 15 13 13 13 13 13 13 13 12 13 12 11 10 10 9 9 9 8 7 6 5 5 5 5 4 4 3 2 2 3 4 4 4 7 11 14 16 20 21 21 22 23 25 27 28 28 28 27 26 26 26 25
8 10 9 10 12 11 10 9 9 7 9 14 19 15 12 14 9 10 4 9 14 12 7 5 6 6 3 8 10 11 11 13 16 12 4 1 4 9 13 13 13 12 12 13 13 14 13 13 13 13 13 13 13 13 13 13 12 10 10 10 10 9 7 7 5 4 4 4 4 4 3 3 2 2 2 3 3 4 5 10 14 17 19 21 22 22 23 24 26 28 28 28 27 26 26 26 25
8 10 9 11 13 12 10 8 10 8 11 16 18 14 14 14 4 5 6 10 11 7 5 2 2 5 5 10 11 11 11 14 15 12 8 4 5 8 11 14 13 13 13 13 13 13 13 13 13 13 13 14 14 13 13 13 12 11 11 10 10 9 7 6 5 4 4 4 4 3 3 3 2 2 1 2 3 3 3 7 14 17 18 20 22 23 23 24 25 27 28 28 27 27 27 26 26
8 9 9 10 12 12 10 7 9 10 13 18 18 15 14 7 8 6 3 6 5 5 4 3 3 4 5 10 12 13 14 15 13 12 10 7 6 9 13 15 15 14 13 12 12 12 13 13 13 13 13 13 13 13 13 13 12 11 11 10 9 8 7 6 5 4 4 4 3 3 3 3 3 2 2 2 2 2 3 5 13 18 18 20 21 23 23 24 25 26 28 28 28 28 28 27 26
7 9 9 9 10 11 10 10 11 12 16 18 19 17 14 4 8 3 1 4 5 3 3 4 5 6 5 10 13 14 14 14 12 11 11 9 10 13 16 17 17 15 12 11 12 13 13 13 13 13 12 13 13 13 13 13 12 11 11 10 9 8 7 6 5 4 4 3 3 3 3 3 3 3 2 2 1 2 3 5 12 18 19 19 21 22 23 24 25 26 27 29 30 29 28 28 26
7 8 10 9 7 8 9 12 12 15 17 17 20 18 13 10 6 2 3 4 5 4 5 5 7 7 7 10 12 12 12 12 11 11 12 12 13 15 15 14 15 14 12 13 14 14 13 12 12 12 12 12 13 13 13 12 11 11 10 10 8 7 7 6 6 5 4 4 3 3 3 4 4 4 3 3 2 2 3 5 10 17 19 19 19 20 22 23 25 26 27 29 30 30 29 28 27
9 9 11 10 7 6 8 11 12 15 18 17 21 19 16 20 17 7 4 5 4 4 3 8 12 10 9 10 10 11 12 12 12 13 15 15 13 11 9 5 9 14 14 14 13 13 12 12 12 12 11 12 13 13 12 12 11 11 10 9 8 8 7 7 6 5 5 4 4 4 4 4 4 4 3 3 3 3 4 5 8 13 17 18 18 19 20 21 24 25 26 27 28 29 29 28 27
10 9 10 9 5 5 8 11 12 13 16 15 18 17 16 20 16 5 9 6 5 6 7 12 14 12 10 9 10 11 14 15 16 16 15 14 12 10 7 4 10 14 13 12 11 11 12 12 12 11 11 12 13 12 12 11 11 11 9 8 8 8 7 7 6 6 5 5 5 4 4 4 4 4 4 4 4 4 4 6 7 10 13 16 17 18 18 20 22 24 26 26 27 28 29 29 28
11 9 7 6 3 7 11 13 14 13 13 13 13 14 15 12 3 2 8 6 1 7 8 16 15 14 12 8 10 11 13 16 17 16 14 13 13 11 8 7 11 13 11 11 10 10 11 11 11 11 12 12 13 12 12 11 11 10 9 8 8 7 7 7 6 6 5 5 5 5 5 5 4 4 4 4 4 4 5 6 7 8 10 12 14 16 17 18 20 22 25 26 27 28 29 29 28
12 9 5 6 6 9 12 13 16 16 15 16 15 15 20 16 7 3 7 8 4 7 11 18 15 13 14 12 11 13 13 15 16 16 14 13 12 11 10 8 11 12 11 10 9 10 10 9 9 10 12 12 12 12 12 11 11 9 8 8 7 7 7 7 6 6 6 6 5 5 5 5 5 5 5 5 5 4 4 6 6 7 8 9 11 13 15 17 18 20 23 26 27 27 28 29 29
11 10 6 9 8 9 10 13 17 17 18 20 18 17 22 17 12 10 6 7 5 7 13 16 18 17 17 17 14 15 14 16 18 15 13 12 11 11 10 10 11 12 11 11 10 10 10 9 9 10 12 12 12 11 11 11 10 9 8 7 7 6 6 6 6 6 6 6 5 5 5 5 5 6 6 6 5 4 4 5 5 6 7 8 9 10 13 15 17 19 21 24 27 28 28 29 29
8 11 9 12 12 12 13 17 19 20 20 14 11 10 15 10 8 8 6 8 6 8 14 16 24 22 19 17 14 15 14 17 19 15 13 14 13 12 11 11 12 13 13 13 12 11 11 10 10 11 12 12 11 11 11 10 9 8 7 7 6 6 6 6 6 6 6 5 5 6 5 5 6 5 5 5 4 3 4 4 5 6 7 8 9 10 11 13 15 17 19 22 25 27 28 29 29
7 9 7 10 13 16 18 22 22 19 17 11 9 8 7 3 3 3 2 6 5 8 12 13 19 19 18 16 15 15 14 18 19 15 15 15 15 14 13 13 13 15 16 15 14 13 12 12 11 11 11 11 11 11 10 9 8 7 7 7 7 6 6 5 5 5 5 5 5 6 5 5 6 5 5 4 3 3 3 4 5 6 7 8 9 10 10 11 13 15 17 19 22 26 28 29 29
6 6 5 10 12 15 15 17 18 17 17 12 10 12 12 6 2 2 3 4 5 7 9 11 16 13 13 12 11 12 11 17 19 16 16 16 16 15 15 15 14 16 16 16 15 14 14 13 11 10 11 11 12 11 10 9 8 7 6 6 6 5 5 4 5 5 5 6 6 6 6 6 6 5 6 5 4 3 3 3 5 6 6 8 9 10 10 11 12 13 16 18 20 23 27 29 29
6 6 10 14 15 16 14 13 14 16 16 9 3 6 12 8 1 3 3 5 5 8 9 10 15 11 9 8 7 8 11 15 18 17 17 18 18 16 16 15 14 14 15 16 16 15 14 12 11 11 12 11 11 11 10 9 8 7 6 6 5 4 4 4 5 6 6 6 6 6 6 7 6 6 6 5 4 3 2 2 3 3 4 6 9 10 10 10 10 12 14 16 18 21 25 28 30
8 10 14 16 18 17 15 14 13 15 14 6 2 2 5 5 6 4 1 6 7 10 14 11 13 14 13 12 8 9 12 14 17 18 18 19 19 18 17 14 13 13 16 17 15 14 13 11 11 11 11 10 10 10 10 9 8 7 6 5 3 3 4 5 6 5 6 6 6 7 7 7 7 6 6 4 3 2 1 1 1 1 2 4 7 9 9 9 9 11 13 14 16 19 22 26 29
14 15 17 18 20 17 13 12 13 15 12 4 4 1 5 5 4 4 2 5 9 9 15 14 14 16 14 12 10 10 12 14 17 19 20 20 18 16 16 14 13 14 17 16 14 14 12 11 11 10 10 10 9 9 9 9 8 7 6 5 4 4 5 6 7 6 6 7 7 7 7 8 7 7 6 4 4 4 2 1 1 1 1 2 4 6 7 7 7 9 12 13 14 17 20 24 28
17 17 19 21 21 17 12 11 13 17 13 6 7 5 4 4 4 7 6 4 7 8 11 15 17 17 14 11 11 13 14 16 18 21 22 20 17 15 16 15 15 15 16 15 14 13 12 10 10 10 9 9 8 7 7 7 7 7 7 7 5 5 6 7 8 8 8 8 7 7 9 9 9 8 7 5 5 5 3 1 1 1 2 2 1 3 5 6 6 7 11 12 12 14 18 22 26
14 16 21 24 21 17 14 12 15 18 15 10 8 4 3 7 8 8 7 4 7 10 13 18 20 19 18 16 14 15 15 17 20 21 21 19 17 15 15 14 15 16 15 14 13 11 9 9 9 8 7 7 6 6 6 6 6 7 8 8 5 5 7 7 8 9 9 8 8 8 10 10 10 9 8 7 5 4 3 2 1 2 2 2 2 1 3 5 5 5 8 11 11 12 15 20 24
13 16 20 20 17 20 19 16 20 18 14 12 11 9 3 6 7 6 8 8 7 11 14 16 20 21 21 19 17 16 15 16 19 19 18 19 18 16 14 14 15 17 15 12 10 8 7 8 8 7 7 6 6 5 5 5 6 7 8 7 6 7 8 8 9 10 9 9 9 8 9 10 11 10 9 7 5 4 3 3 3 3 3 2 2 1 1 3 4 5 6 8 10 11 13 17 20
14 17 18 16 14 18 19 18 21 18 12 13 15 14 11 11 9 7 9 9 11 14 13 14 16 17 18 19 17 16 14 14 16 17 18 20 18 15 13 15 16 15 13 9 7 7 8 8 9 9 7 7 6 5 4 5 6 7 7 7 7 8 8 8 9 11 11 10 9 8 8 10 10 10 8 6 5 5 4 4 4 4 4 4 3 2 2 2 3 5 5 6 9 10 11 13 16
18 18 17 17 16 18 17 17 21 21 17 18 19 19 19 16 11 12 12 11 15 17 16 17 12 7 10 14 16 13 11 13 15 16 18 18 17 14 13 15 14 11 10 8 7 7 8 9 9 9 7 7 6 5 5 5 6 7 8 8 8 9 10 10 10 12 13 12 9 7 8 10 10 9 8 6 6 6 5 4 4 4 4 4 4 4 3 3 3 5 5 5 8 8 9 10 12
19 20 18 18 19 18 16 16 17 19 20 22 23 24 23 17 14 18 16 14 19 18 18 20 13 10 12 12 13 12 11 12 12 12 14 15 14 12 12 13 11 9 10 7 6 6 7 9 7 6 6 7 5 5 5 5 7 8 8 8 8 11 11 11 12 14 14 13 10 8 8 9 9 9 8 7 7 7 5 4 4 4 4 3 5 5 4 3 3 4 4 5 6 7 7 8 10
19 21 20 18 18 20 21 18 13 12 14 19 22 22 20 18 17 17 13 17 23 18 18 20 14 9 12 12 12 12 12 11 11 12 13 14 15 13 10 10 10 7 10 6 6 7 8 6 4 5 6 7 6 6 5 7 8 9 10 9 10 11 11 11 12 14 15 14 11 9 9 9 9 10 8 7 7 7 6 5 5 4 4 4 4 5 5 4 3 3 4 5 6 7 7 7 7
18 20 21 20 19 21 22 17 16 17 17 19 20 18 16 14 15 14 11 16 19 14 15 18 11 6 11 14 13 13 13 13 13 13 14 14 15 13 9 8 8 6 8 5 7 8 7 6 5 7 8 7 6 6 6 8 9 10 11 10 10 10 10 12 13 14 14 14 13 11 10 10 11 12 11 8 7 7 7 7 6 5 6 6 5 6 6 5 4 5 7 6 6 8 8 6 6
16 16 17 19 19 20 19 17 20 22 20 18 15 15 15 11 13 13 10 15 15 13 15 16 13 8 11 14 14 13 13 14 13 13 14 13 13 13 9 6 6 3 4 6 8 8 8 8 8 9 9 6 5 4 5 8 9 10 10 10 10 10 11 13 12 13 14 15 14 10 9 10 11 12 11 8 6 7 8 9 9 8 9 8 8 7 7 6 6 7 8 6 6 7 7 7 6
14 14 14 16 18 19 19 20 19 16 16 16 13 14 16 15 17 16 12 16 17 14 14 14 15 14 13 14 13 14 15 16 14 13 13 13 14 14 8 5 5 2 4 9 7 8 10 9 8 8 6 4 2 3 3 6 8 9 10 10 10 9 10 11 12 14 14 15 12 8 10 11 11 11 9 7 6 7 9 10 10 11 11 10 10 9 8 8 8 8 6 6 6 7 8 7 6
14 15 16 15 18 21 21 21 20 17 16 15 12 14 20 20 20 17 14 18 19 14 13 16 18 17 17 18 16 17 16 16 16 14 14 15 15 16 11 5 5 7 9 10 7 9 9 4 4 4 3 3 3 4 4 5 7 9 10 10 10 10 9 10 11 13 12 12 10 9 10 10 11 10 9 9 8 8 8 10 11 12 13 12 11 11 11 10 9 8 7 8 8 8 9 8 8
12 15 18 17 18 24 24 20 18 19 19 15 13 16 20 17 15 17 18 22 21 14 14 17 18 17 16 18 18 18 16 14 15 14 15 18 16 17 14 5 5 12 13 14 11 10 6 1 3 3 4 5 7 7 7 7 7 8 8 8 10 11 10 9 10 11 11 11 10 10 11 10 11 10 10 11 11 11 11 12 13 13 14 13 13 12 12 12 11 10 9 10 9 9 10 9 9
11 12 16 19 23 25 22 19 17 17 16 14 15 18 19 15 13 18 22 24 19 13 15 17 15 13 13 14 15 15 15 13 13 13 16 20 18 18 13 7 4 12 15 17 14 11 7 6 6 3 1 4 6 6 7 9 9 8 8 8 8 10 11 10 11 12 12 12 12 12 12 12 11 10 12 12 11 12 13 13 13 13 14 13 13 14 14 14 12 12 12 12 12 11 11 11 11
12 15 17 19 24 22 15 15 20 17 12 14 15 15 19 15 14 20 25 22 15 12 17 16 13 10 9 10 10 11 12 11 11 12 15 20 20 19 15 13 9 13 16 16 14 11 9 8 6 3 2 2 3 3 5 7 8 7 7 8 8 10 12 13 13 13 12 12 12 12 12 13 12 12 13 12 12 13 11 11 12 12 13 13 13 14 15 14 13 13 13 14 15 15 15 13 13
14 19 20 20 23 24 21 18 22 16 10 18 20 13 15 14 11 21 20 15 11 13 18 16 13 9 7 7 7 9 9 8 8 11 15 19 21 20 19 16 14 18 18 16 14 11 9 7 5 3 3 2 2 3 4 4 5 5 6 7 7 10 11 13 14 14 13 11 11 12 12 14 16 17 16 14 15 15 12 11 12 13 13 13 13 13 13 13 14 13 12 13 15 17 17 15 14
16 19 24 22 21 26 23 18 24 18 12 22 23 13 13 10 11 20 16 13 12 16 17 15 11 8 7 5 4 5 7 9 7 9 14 17 19 19 19 20 20 20 18 16 15 12 10 8 6 5 4 3 3 3 3 3 3 4 5 7 7 9 10 10 13 15 16 14 13 13 13 13 14 15 15 14 15 15 13 13 14 15 14 14 13 13 13 13 14 15 14 14 15 16 16 15 14
10 11 18 20 22 24 18 20 26 22 16 20 21 15 10 4 15 15 10 10 14 16 14 12 9 8 8 6 5 3 4 10 9 8 12 15 17 19 21 22 21 21 19 17 15 11 10 8 7 6 4 4 5 5 3 2 3 4 5 6 8 9 9 9 10 11 13 15 15 15 13 12 11 11 11 12 12 13 14 13 14 15 15 14 14 13 14 14 15 16 15 15 15 15 15 15 15
9 9 10 14 21 19 16 19 23 21 18 17 17 16 12 8 13 9 8 9 15 12 10 10 8 10 10 8 7 4 3 8 10 9 11 13 16 19 21 20 19 20 19 16 14 11 10 10 9 7 5 5 6 6 4 3 4 5 7 8 10 11 10 8 8 8 10 11 13 15 15 14 12 11 11 12 12 13 14 13 13 14 14 14 13 13 14 14 15 15 15 16 15 14 15 15 16
14 12 10 13 18 15 8 17 23 17 16 15 12 14 14 11 13 14 11 15 15 11 10 10 7 9 10 7 5 4 2 7 11 10 10 12 15 18 19 18 18 20 19 16 15 13 12 12 9 7 6 6 6 6 5 4 4 6 9 10 12 13 10 7 7 7 8 9 10 13 15 15 14 12 13 13 14 14 16 16 15 14 14 13 12 11 12 14 14 13 13 15 15 14 14 15 16
15 15 14 12 12 14 5 18 24 15 14 13 10 12 13 12 12 12 13 20 17 14 13 11 7 7 7 6 5 4 5 10 12 11 10 13 14 16 19 19 19 19 18 18 15 14 14 13 10 8 7 7 7 6 5 6 7 9 10 11 13 14 11 7 6 6 6 7 8 9 12 14 14 14 14 15 15 15 17 18 18 16 14 13 12 12 11 12 13 12 10 12 15 15 14 14 15
16 17 15 12 9 11 6 10 13 11 12 10 9 11 12 13 12 8 8 16 16 11 13 12 9 8 8 10 10 7 9 10 10 10 10 12 13 15 20 21 20 20 19 18 16 15 15 13 11 10 9 8 8 7 7 7 9 11 12 13 14 15 13 10 6 5 5 6 6 6 8 10 12 13 14 14 14 15 16 18 18 17 15 14 13 12 12 12 12 12 11 12 14 15 15 15 15
16 16 16 15 11 8 7 1 5 7 6 8 9 12 16 18 15 9 5 9 13 10 11 9 7 10 13 13 11 9 9 8 9 10 9 10 12 14 18 20 20 21 21 20 18 17 16 15 13 11 10 9 9 9 9 8 10 12 14 16 16 16 14 12 8 5 4 4 4 5 5 7 8 9 10 11 11 11 13 15 16 16 15 15 14 13 12 12 11 12 12 12 14 15 16 15 15
12 11 12 15 15 12 11 3 1 4 4 7 9 11 18 23 20 13 9 8 11 11 12 11 9 13 14 11 9 7 6 7 7 9 9 9 10 12 14 16 17 19 21 20 18 18 18 16 14 13 12 11 10 10 10 9 10 12 13 15 17 17 16 14 11 7 4 2 2 3 4 4 4 5 6 6 6 7 8 9 11 12 13 14 14 14 14 14 13 13 13 13 13 14 14 15 15
8 7 7 11 14 15 13 7 5 4 4 6 8 8 13 22 22 17 13 11 11 12 15 18 15 13 12 11 12 10 7 6 7 7 7 7 8 10 12 13 14 16 18 18 18 19 19 18 17 15 13 13 13 11 10 10 10 11 13 14 17 17 17 16 12 8 4 1 1 1 1 1 1 1 2 3 3 4 5 6 7 8 10 10 10 11 12 13 13 12 12 12 12 12 12 13 15
10 8 6 8 11 14 14 12 8 5 5 6 7 7 8 15 18 15 12 13 14 14 17 17 13 16 14 11 14 16 13 10 7 7 6 7 9 11 13 14 14 15 16 17 20 21 20 20 19 16 14 14 14 13 12 12 11 11 12 14 16 16 16 16 13 9 5 2 2 3 3 2 2 2 1 2 2 3 3 5 6 7 7 6 6 6 7 8 8 8 8 9 10 11 12 13 14
12 11 10 10 10 11 13 14 12 7 6 4 6 7 9 14 16 13 12 14 15 18 20 17 13 14 12 11 13 14 14 11 10 10 10 10 12 13 15 15 14 13 13 16 20 22 21 21 20 17 16 16 16 15 14 13 13 11 12 14 14 14 14 15 13 10 7 4 3 4 4 3 3 2 2 2 3 3 3 4 4 4 4 4 5 5 5 5 4 4 4 5 7 8 10 11 12
13 11 10 10 10 11 11 12 13 12 10 8 9 9 7 10 14 13 14 16 16 19 20 20 17 12 8 13 16 15 13 13 13 13 13 12 11 13 14 14 13 13 13 14 16 19 21 22 22 21 22 19 17 17 17 16 15 12 12 14 14 15 14 14 13 12 8 4 2 2 3 3 2 2 2 2 3 3 3 3 3 3 3 3 3 4 3 4 3 4 4 4 4 4 5 7 9
14 11 11 9 10 13 12 12 13 11 8 7 9 10 5 5 12 14 14 15 13 13 17 16 16 13 11 15 16 14 13 11 9 8 8 9 8 10 11 11 13 13 13 14 16 18 20 20 22 26 26 20 18 18 19 18 17 13 13 14 15 15 15 14 13 12 8 3 1 1 2 2 2 2 2 3 3 4 4 4 4 4 4 4 3 3 3 3 3 4 4 4 3 3 3 3 5
13 12 14 11 10 14 14 13 13 10 3 1 4 10 9 5 8 13 13 13 12 12 14 12 15 14 14 17 13 8 9 8 7 8 7 7 8 9 10 11 12 12 13 16 18 19 20 19 20 26 28 23 19 21 21 20 18 15 14 15 15 15 15 14 12 10 6 2 3 4 5 5 5 5 4 4 4 5 5 5 5 5 5 5 4 4 3 4 4 4 4 4 3 3 3 2 3
8 7 10 8 6 10 12 10 8 4 2 5 7 11 12 8 8 12 11 10 11 13 13 13 20 19 19 21 16 12 13 11 9 10 9 8 8 10 11 13 14 15 17 19 21 21 21 20 18 21 28 27 23 23 23 22 19 16 15 14 14 13 13 12 10 8 4 3 4 6 6 7 7 6 6 6 6 6 6 6 6 6 6 5 5 5 4 4 4 4 4 3 3 3 3 3 2
7 6 8 5 4 3 5 3 1 1 4 8 10 10 10 11 14 15 12 7 7 12 13 13 20 22 21 22 18 15 14 14 14 13 13 11 9 9 11 14 17 17 16 19 21 20 19 21 20 20 24 28 26 25 25 23 20 17 15 14 13 11 11 10 8 6 3 3 4 6 7 8 8 8 8 8 9 9 8 8 8 7 7 7 6 6 6 6 5 5 4 4 3 3 2 2 2
8 10 8 5 1 0 2 2 1 3 5 8 12 10 8 10 11 11 12 10 9 11 13 13 19 22 22 24 25 23 22 22 22 21 21 20 18 16 17 18 20 20 17 20 23 21 18 19 21 20 20 26 30 28 26 24 22 18 14 12 12 10 9 8 7 5 2 2 5 6 8 9 10 11 11 11 11 11 11 11 10 10 10 10 10 10 9 9 8 8 7 6 6 5 4 3 2
8 11 12 13 9 5 2 1 2 1 3 7 10 4 3 7 5 4 8 10 9 9 12 14 16 19 19 21 23 25 27 28 27 25 25 24 22 21 19 19 21 22 23 24 24 24 24 22 20 21 21 28 33 31 28 29 25 18 13 11 11 9 8 7 5 3 1 2 5 7 9 10 10 11 12 13 13 13 12 12 13 13 13 13 14 14 13 13 12 12 11 11 10 9 9 8 7
8 8 12 15 9 6 5 5 5 5 4 5 9 6 4 6 3 3 6 12 13 11 11 13 14 16 17 18 20 22 24 25 26 24 22 20 18 19 19 19 20 21 23 25 25 27 30 24 18 18 21 26 33 34 32 32 26 17 13 11 11 10 9 7 4 2 2 3 5 7 8 8 9 10 10 11 12 12 12 12 13 14 14 15 15 15 15 15 14 14 14 14 14 13 13 12 11
3 5 8 8 5 4 7 7 6 6 3 3 9 11 11 8 6 7 9 13 15 15 14 14 15 15 16 17 18 19 19 20 20 18 17 16 16 17 17 19 20 21 22 23 24 27 25 18 13 15 17 19 27 36 36 32 24 18 15 12 11 10 9 7 5 5 5 4 4 6 8 8 7 7 8 8 9 10 10 11 11 12 12 13 14 14 14 13 13 14 14 14 14 13 13 13 12
2 2 4 3 4 6 6 4 1 1 2 3 6 9 11 9 6 8 12 13 13 16 18 18 18 18 18 20 22 21 19 18 18 14 12 13 14 15 16 17 18 19 21 21 22 24 21 14 12 14 15 14 18 32 36 29 21 17 15 13 12 11 11 9 8 8 7 6 5 5 7 7 6 4 4 5 5 6 7 8 9 9 9 10 10 10 10 10 10 11 11 11 12 12 12 12 12
5 6 8 7 3 5 5 5 2 1 2 2 5 7 7 5 4 7 13 15 14 17 20 20 20 22 23 25 26 23 20 17 14 11 10 11 12 14 14 13 14 15 16 17 19 20 18 13 10 9 11 10 10 20 28 26 20 16 14 14 13 13 13 13 12 11 9 8 8 7 6 5 4 3 1 1 1 2 3 4 5 5 5 6 6 6 6 6 7 7 7 8 8 9 9 10 10
6 8 10 9 5 3 3 5 4 3 3 2 3 4 2 5 4 4 10 13 14 15 16 17 20 24 27 27 25 20 16 13 11 8 8 9 9 10 11 10 10 10 9 11 12 14 15 11 8 6 7 7 6 11 18 21 21 18 16 16 16 15 15 16 16 15 12 11 11 10 9 7 5 4 4 4 4 3 2 1 1 1 1 1 1 2 2 2 2 3 4 4 5 5 6 7 7
5 7 10 10 7 5 3 4 5 4 0 2 0 2 3 7 8 5 5 7 13 13 13 17 20 23 24 24 22 18 13 12 11 9 8 8 8 8 9 9 8 8 7 7 8 10 10 8 5 4 5 5 6 9 12 17 22 22 20 18 18 17 17 18 18 17 15 14 13 13 13 12 11 10 8 6 6 6 6 6 5 5 4 4 4 3 2 2 2 3 3 3 4 4 4 5 6
7 11 11 6 5 6 2 3 10 11 6 2 2 1 6 8 7 4 4 1 8 9 10 15 16 17 22 22 20 17 14 13 12 10 10 9 8 8 8 9 9 8 7 7 7 8 7 5 4 4 5 5 7 10 13 17 23 25 24 22 21 20 19 19 19 17 17 17 17 17 18 18 17 15 13 11 10 9 9 9 9 9 9 8 8 7 7 6 6 7 7 7 8 8 7 7 8
Wind_Direction
203 209 207 200 190 196 207 207 224 227 233 259 266 263 261 258 257 277 279 273 266 196 210 158 150 116 52 214 243 240 244 258 277 299 260 221 188 171 165 169 188 196 199 207 212 210 208 203 204 207 209 212 208 208 205 203 206 209 210 202 192 182 170 161 146 135 129 128 128 130 129 118 109 96 96 94 101 141 175 185 178 180 182 179 176 177 178 178 179 180 180 179 177 177 176 174 172
199 201 209 213 196 196 210 210 223 219 230 264 258 252 270 282 265 272 273 247 142 98 112 133 140 122 67 248 244 240 250 264 273 292 299 213 209 190 175 176 192 197 203 207 210 212 210 207 207 209 211 213 211 210 208 206 208 210 207 199 193 185 176 171 159 147 138 136 138 139 137 130 118 93 93 97 99 126 167 188 186 183 185 184 181 181 181 181 181 183 183 182 180 179 180 178 176
200 202 206 218 210 203 204 214 219 211 223 253 257 247 283 293 272 263 228 147 145 103 79 118 127 146 195 241 240 241 248 262 274 293 314 209 201 195 187 186 195 198 203 206 209 211 213 211 209 210 213 214 213 211 210 210 210 210 203 197 193 188 180 176 171 159 146 143 144 143 143 138 130 110 92 93 95 109 151 184 191 187 187 188 185 183 184 184 184 185 185 185 183 182 183 182 180
200 206 207 218 222 207 189 213 227 236 233 243 256 246 283 291 215 171 121 101 136 116 55 67 126 164 226 244 245 247 241 251 268 292 303 263 188 188 199 198 200 200 198 200 204 209 214 212 211 212 212 213 214 212 212 212 213 210 201 197 195 191 188 184 177 166 153 151 149 152 154 146 137 130 106 83 89 95 130 174 189 188 187 191 190 187 186 186 187 187 187 187 186 185 185 184 184
198 202 205 216 223 209 190 216 232 246 237 234 250 250 287 296 166 179 139 54 73 86 44 323 267 194 235 255 254 252 250 250 257 280 289 275 227 200 208 205 197 195 191 192 200 208 212 212 211 211 211 213 214 214 213 214 215 209 200 197 198 195 194 188 177 168 158 155 158 167 162 154 152 154 140 97 92 96 117 161 181 185 186 191 194 192 189 188 189 189 189 189 189 189 188 186 187
205 206 201 208 224 218 206 225 230 237 237 238 253 256 283 269 148 108 20 298 321 340 306 274 240 199 210 240 249 252 258 258 259 278 281 269 237 212 209 201 186 182 185 192 203 207 209 210 209 208 208 212 212 213 214 214 213 208 202 198 198 198 196 187 177 168 161 164 172 180 174 167 166 167 157 142 130 115 128 155 175 182 185 191 195 196 193 191 191 191 192 192 193 192 190 188 188
203 211 200 194 211 225 224 240 239 241 242 239 257 265 270 248 202 88 54 333 319 307 280 251 250 234 213 223 241 248 251 257 264 278 269 243 220 212 210 194 176 173 185 196 202 206 207 205 204 204 205 209 210 211 213 213 210 206 203 199 197 196 192 182 175 168 166 177 183 192 187 179 174 174 173 166 162 142 142 152 171 181 185 190 194 197 197 196 194 194 194 195 195 195 193 191 190
193 209 207 196 189 221 246 262 258 255 254 244 254 265 269 265 268 254 152 68 48 19 306 249 257 250 235 235 241 248 251 254 258 262 254 240 229 224 223 198 168 174 185 192 200 206 206 201 198 199 200 203 204 207 209 209 207 203 200 198 195 192 187 178 171 169 177 188 197 208 202 194 189 186 192 185 179 165 153 156 168 179 186 191 194 197 200 201 199 197 197 197 198 198 195 193 193
190 205 208 204 194 225 258 273 271 262 260 260 255 258 271 269 280 256 163 117 72 1 296 236 242 242 243 246 243 254 255 250 250 251 243 235 233 218 216 208 176 176 183 190 201 204 200 198 196 196 197 198 199 202 204 205 206 201 199 197 193 187 183 177 171 174 185 196 209 218 216 208 205 205 209 200 188 180 171 168 171 178 186 193 196 198 201 203 204 202 201 199 199 200 198 196 196
189 191 191 197 208 249 261 266 265 262 265 277 265 263 269 249 294 56 161 171 110 342 267 216 224 239 244 242 241 253 250 247 242 238 227 223 225 202 190 197 183 177 186 195 201 200 196 195 196 198 197 196 197 198 200 204 204 199 197 193 187 183 181 178 174 180 190 206 217 221 220 218 222 231 228 218 206 197 195 186 184 185 188 194 200 203 203 204 205 206 205 202 201 202 201 199 198
192 167 170 216 230 247 251 257 262 265 272 281 277 270 261 237 229 235 171 192 238 306 246 215 224 242 251 251 244 244 248 251 236 226 221 219 223 206 194 199 192 185 190 199 204 203 196 196 199 200 197 195 195 196 200 201 199 195 193 188 182 182 182 179 176 184 198 210 215 215 218 226 236 245 246 237 229 221 211 203 202 202 197 198 204 208 209 208 207 207 208 205 203 204 203 202 200
196 160 184 248 253 255 249 261 269 277 284 285 286 267 251 240 229 231 206 222 243 260 247 241 255 265 266 260 246 241 250 250 232 224 220 216 222 216 210 205 197 192 193 200 203 202 197 199 201 196 193 192 194 196 199 199 195 191 187 185 183 183 183 182 181 190 204 210 210 210 215 226 240 249 255 248 239 236 224 218 222 225 219 212 214 217 217 216 212 210 209 209 206 205 205 204 202
191 166 193 245 254 267 273 275 278 287 290 295 307 253 233 239 221 211 210 250 261 251 267 273 267 268 264 250 233 237 252 242 227 222 216 214 218 215 211 205 199 194 195 200 201 199 198 201 198 193 191 191 195 196 196 197 195 192 186 185 184 186 187 188 191 199 211 214 209 210 213 222 236 249 259 254 245 246 237 230 236 241 239 232 228 227 227 224 220 216 212 211 209 208 207 205 204
191 175 196 246 250 262 270 276 280 284 284 291 300 262 228 183 168 179 190 253 260 260 285 288 272 265 250 235 217 229 243 231 224 219 215 213 213 210 204 196 190 189 192 197 199 200 200 200 196 192 194 195 198 196 195 194 195 193 187 191 190 189 193 199 207 213 218 220 219 216 215 223 233 245 255 253 248 247 240 239 248 251 248 242 236 231 229 230 227 221 216 212 211 211 209 207 206
201 192 236 263 263 266 264 268 274 277 287 292 283 281 274 245 183 307 316 278 243 256 301 290 272 263 248 242 223 226 230 228 226 219 219 219 215 210 205 195 183 185 193 198 197 200 201 200 195 192 195 200 203 199 196 194 196 195 192 200 202 200 206 218 225 228 228 231 235 229 222 222 232 244 250 251 246 243 251 263 262 259 255 247 240 234 230 231 231 226 220 214 210 212 211 209 207
212 225 249 261 261 262 256 253 261 273 293 303 276 297 282 263 318 356 322 301 268 251 273 264 249 245 247 243 223 227 228 234 234 223 222 224 217 210 211 205 191 192 197 198 197 199 202 199 194 195 199 204 207 205 202 203 204 202 201 208 214 213 216 233 234 232 237 242 241 232 225 223 232 244 248 250 248 246 255 265 260 265 264 249 237 233 232 236 241 234 224 216 208 209 211 210 208
202 234 244 250 246 245 241 238 246 271 296 299 244 97 112 99 65 54 35 302 314 262 259 260 240 240 239 226 224 241 238 238 238 234 230 224 216 207 210 207 199 200 197 197 198 199 197 191 191 196 199 203 204 202 205 210 212 210 209 209 212 212 224 242 239 237 242 241 239 233 230 228 235 244 244 244 242 239 229 206 202 325 293 247 230 229 232 240 254 246 228 218 209 206 209 210 209
191 221 238 242 236 232 224 222 240 275 302 281 256 217 138 106 62 16 0 317 330 288 269 273 249 238 231 224 237 250 247 242 239 240 233 222 213 206 208 206 199 198 194 195 196 195 190 184 188 193 195 198 195 193 205 212 216 218 218 216 214 218 235 243 240 247 246 240 240 239 239 235 236 240 237 231 220 218 219 204 150 39 348 270 227 226 231 243 261 249 227 219 208 202 206 208 209
194 211 235 242 234 228 218 218 251 285 308 286 274 273 234 247 273 311 319 303 304 283 275 273 256 244 241 241 245 250 254 244 235 236 235 228 223 215 208 203 198 195 193 191 190 192 186 180 186 192 192 195 191 192 207 216 221 224 225 225 226 233 246 247 246 252 251 249 246 239 240 235 232 230 224 223 218 214 218 245 270 336 345 341 306 226 227 242 261 247 225 219 205 196 202 206 208
212 216 232 238 239 245 240 241 274 295 302 292 275 235 206 233 249 302 305 279 273 271 281 275 263 255 248 250 250 249 249 242 236 235 236 236 236 231 214 202 195 191 188 187 191 193 180 174 183 189 187 186 187 191 208 222 229 233 235 236 244 254 258 257 255 255 249 245 242 235 235 234 229 223 219 223 219 211 217 245 267 279 322 351 5 345 222 236 254 252 233 223 209 195 198 203 206
232 231 239 245 250 257 255 265 291 298 282 270 254 238 228 217 241 304 272 255 263 270 284 278 270 266 255 249 248 245 242 246 246 239 238 241 241 238 223 211 199 184 182 187 190 188 173 166 168 174 180 181 185 192 208 226 237 244 245 247 257 267 270 265 257 255 246 237 240 241 238 235 230 224 220 225 228 218 226 247 254 262 282 304 317 332 253 243 254 265 255 235 217 200 198 202 205
241 242 255 266 268 265 263 268 288 298 279 262 256 252 255 249 266 286 257 265 268 257 265 277 278 278 265 250 244 243 244 250 249 249 251 248 248 243 231 225 209 180 170 180 177 173 168 162 161 162 171 182 190 202 217 229 239 247 251 260 269 273 276 270 259 254 248 243 248 252 251 245 235 228 222 221 232 225 223 244 250 254 264 269 269 274 265 270 278 277 271 249 226 204 201 203 203
242 248 259 262 266 273 276 274 282 291 284 275 267 262 264 266 269 264 265 276 266 252 254 272 271 234 235 238 238 239 245 249 248 258 259 251 254 251 242 239 222 181 153 152 152 161 168 163 162 162 173 190 199 211 220 230 246 256 261 269 273 270 272 272 259 250 249 249 248 247 251 248 233 222 217 216 226 226 225 242 250 249 249 251 248 243 244 263 283 284 280 261 236 213 205 205 202
242 251 256 256 259 263 273 282 283 282 281 275 265 263 265 265 261 260 268 265 254 253 253 267 265 203 199 221 234 238 241 244 243 254 255 248 246 239 242 248 233 180 137 135 150 163 172 161 162 175 184 198 202 205 212 230 247 256 257 260 263 261 264 262 249 246 250 250 244 231 232 242 239 224 210 209 221 230 236 245 250 253 257 251 249 248 243 243 269 292 295 278 255 230 215 212 202
243 253 261 264 261 254 258 265 263 265 275 274 270 272 268 259 251 246 256 257 248 246 246 257 268 233 216 221 229 231 231 231 232 243 246 241 233 220 225 242 240 180 131 143 174 167 176 169 190 208 193 197 198 204 223 243 252 255 253 255 260 258 260 253 244 244 245 247 243 222 213 225 236 234 219 208 220 234 241 251 252 260 269 270 267 253 238 232 253 273 270 264 257 241 229 221 214
251 257 262 261 263 259 251 251 258 262 264 272 277 277 270 253 237 233 243 247 239 238 248 254 260 229 214 219 219 222 226 229 234 240 245 242 227 211 198 206 225 175 125 161 186 174 183 186 215 215 205 208 202 210 229 244 255 262 260 261 259 251 251 249 247 244 240 245 244 222 206 208 216 225 220 209 222 236 239 249 255 266 275 274 270 254 239 234 238 244 245 242 241 242 237 232 233
261 257 252 246 260 266 251 253 264 265 265 269 269 259 262 254 233 240 237 230 235 242 244 244 247 238 228 228 225 228 235 240 242 240 246 243 217 197 188 213 234 163 132 200 192 177 183 190 212 214 215 220 221 242 251 250 261 273 273 270 258 243 237 238 241 241 239 242 245 231 214 211 212 221 222 214 225 239 242 249 258 270 274 270 263 259 253 242 234 238 243 241 243 246 244 239 241
254 246 251 243 254 261 253 259 256 257 266 262 261 252 252 255 244 241 226 226 239 238 228 235 250 257 258 253 249 254 254 254 250 238 241 232 200 183 184 238 245 170 210 222 197 189 197 197 204 210 222 230 241 278 286 264 265 268 269 265 255 245 233 230 228 226 230 238 248 243 224 218 215 220 226 223 224 236 245 249 254 259 260 261 262 262 256 244 238 242 247 246 244 245 241 234 231
249 242 259 254 252 251 245 251 246 244 256 253 256 252 249 252 247 238 224 220 221 222 234 245 252 255 261 262 263 267 263 257 247 234 229 210 187 181 185 215 195 178 217 225 203 209 219 198 184 222 276 298 299 303 298 267 254 253 257 254 249 246 236 234 230 222 224 230 238 240 231 228 221 215 214 217 217 221 237 249 250 249 248 249 251 254 252 246 247 251 253 250 246 240 236 230 229
249 242 258 263 260 253 240 242 248 241 244 245 237 244 249 237 227 230 217 208 210 222 242 245 246 245 252 256 258 263 262 253 240 230 216 192 179 183 190 228 190 180 213 222 209 213 225 169 199 259 314 320 323 324 313 297 281 268 262 252 241 239 236 239 241 237 231 219 219 232 235 238 233 221 215 216 211 204 214 232 239 240 241 243 244 247 249 248 251 252 250 250 248 240 234 234 238
244 243 255 257 258 259 245 240 248 238 233 229 222 240 243 227 234 234 210 205 213 226 234 238 243 243 252 256 257 261 257 248 237 230 212 193 189 186 194 289 261 187 210 216 209 206 195 179 193 218 264 309 329 330 314 308 304 293 276 265 245 237 234 234 242 245 240 228 222 226 229 233 235 231 227 219 211 209 209 213 220 228 233 238 242 245 246 245 247 249 245 242 239 235 234 236 241
241 246 250 247 251 262 262 242 233 231 228 212 211 237 244 247 247 218 203 205 211 221 225 233 246 245 256 257 264 275 255 240 234 224 206 200 206 200 217 277 260 202 209 207 202 196 186 188 191 201 237 278 317 306 303 303 303 298 284 276 259 243 231 226 239 247 244 234 225 223 222 223 224 229 232 225 221 226 222 214 216 226 233 236 240 241 243 242 243 247 244 237 232 231 233 238 242
243 241 251 254 249 257 270 249 219 217 226 206 200 226 257 269 223 187 185 189 203 230 228 237 252 240 250 266 285 288 244 220 230 216 199 205 214 210 217 236 219 203 206 202 199 196 197 205 205 218 247 250 259 283 298 300 305 314 305 293 275 259 243 227 230 238 240 236 230 226 218 213 212 215 222 223 225 230 230 227 229 232 236 237 236 236 238 239 239 242 241 235 232 232 235 238 241
251 240 249 258 257 260 259 226 201 199 196 191 196 232 282 280 190 171 171 179 212 238 234 244 247 215 230 253 278 294 239 221 228 212 201 206 213 210 206 206 203 202 203 200 199 199 207 213 216 231 242 248 271 294 305 308 322 336 329 318 301 280 267 248 234 231 232 232 234 234 226 223 221 217 220 224 226 233 235 233 234 234 233 233 233 235 235 236 236 237 238 237 236 235 235 236 237
267 263 257 267 280 268 234 192 188 190 189 188 199 237 277 202 167 169 183 198 216 232 242 251 233 204 205 202 217 286 262 230 219 203 200 197 198 201 201 200 200 203 203 202 201 205 215 219 227 240 246 262 285 294 301 337 5 353 350 351 337 318 302 284 263 247 239 233 231 234 235 237 240 236 236 237 235 242 244 239 237 238 237 238 237 234 233 234 235 235 235 236 237 236 234 230 229
276 304 283 296 306 283 241 207 188 183 195 193 200 235 258 209 189 217 250 206 198 218 248 248 225 209 196 185 218 254 267 226 211 207 207 200 199 201 205 209 206 205 206 206 208 215 223 228 235 241 250 270 285 290 301 336 1 357 6 18 10 357 339 314 290 273 260 246 233 230 233 234 239 242 244 244 242 246 250 247 242 240 241 243 242 238 235 233 233 233 233 233 233 233 232 227 224
262 282 289 311 325 320 276 195 175 175 193 189 197 234 252 235 223 245 238 189 195 238 246 232 232 223 214 207 232 254 228 197 197 206 216 217 219 218 220 222 213 207 210 215 221 226 227 232 238 241 252 270 281 288 300 313 330 352 5 15 18 15 1 331 300 279 263 254 241 233 234 236 238 242 246 248 247 247 251 253 250 246 243 240 242 243 241 237 233 234 234 230 226 226 227 225 226
262 279 291 306 329 348 21 157 163 169 181 184 201 229 241 236 236 247 222 197 216 254 232 218 235 234 243 248 253 261 209 191 191 199 213 219 224 229 231 232 224 217 220 225 229 230 230 231 235 244 259 270 276 281 285 291 317 349 3 7 13 15 7 347 315 288 267 250 241 235 234 237 239 241 246 251 253 253 252 252 253 251 247 241 239 240 240 238 232 230 229 221 219 221 223 225 229
266 280 287 288 312 348 16 157 167 165 176 198 219 238 239 235 242 243 219 204 210 234 219 216 235 237 258 258 255 246 205 201 201 199 208 215 221 228 230 235 235 231 229 230 232 231 231 228 232 246 257 262 266 273 280 295 323 343 353 357 7 12 5 357 336 299 280 258 245 239 236 237 239 241 245 248 251 252 249 248 250 250 246 242 239 236 237 236 229 226 224 217 214 215 220 226 232
271 279 282 275 276 320 343 208 156 132 172 214 230 251 241 238 247 239 248 218 192 201 210 210 249 271 279 263 247 233 213 221 217 205 210 218 225 228 231 241 246 241 232 230 233 233 229 224 229 243 249 252 259 271 285 303 322 335 343 349 355 1 360 357 350 318 283 265 257 252 244 241 241 243 246 246 242 240 240 242 244 245 243 240 238 235 232 229 227 227 222 217 215 216 222 226 227
269 270 281 271 253 282 321 313 149 115 162 203 216 250 242 234 240 240 265 251 209 215 215 218 258 273 277 260 237 239 234 242 228 211 216 228 239 238 240 251 256 250 239 235 236 232 227 222 224 234 239 240 247 265 283 295 312 324 334 341 345 351 352 351 350 341 315 276 259 253 249 245 239 239 243 246 241 230 228 230 235 241 241 240 239 238 238 236 237 237 230 224 220 220 225 225 225
270 244 269 279 258 277 300 286 282 248 241 258 228 245 248 235 239 248 264 267 255 252 235 240 250 237 246 260 257 256 245 239 231 219 226 234 240 243 248 256 259 257 247 238 233 230 229 224 220 226 232 232 238 253 271 281 298 315 323 331 339 344 346 345 345 343 331 289 212 206 209 218 204 210 230 240 244 228 218 219 223 230 233 236 237 238 243 247 248 248 246 242 234 230 232 232 231
284 259 260 284 272 282 285 276 281 235 258 296 222 219 255 248 248 247 261 267 260 261 247 241 227 201 212 259 267 254 238 227 212 210 227 237 241 250 260 264 262 261 253 239 233 235 236 231 224 225 231 233 238 245 258 272 283 301 313 321 332 339 342 341 338 336 321 261 192 170 167 171 167 161 177 197 219 220 207 203 207 215 221 225 223 224 231 240 244 243 248 251 244 239 239 238 236
268 265 265 275 276 285 283 278 280 270 288 291 204 219 251 258 257 252 268 266 253 259 246 220 203 198 214 255 261 247 234 232 236 245 258 267 271 273 277 275 267 261 255 245 243 246 248 241 231 233 240 235 236 245 251 263 271 285 305 314 324 331 336 336 333 333 326 286 233 205 199 205 201 200 201 193 196 201 191 186 191 198 195 192 195 201 207 215 216 213 223 232 225 225 230 234 239
251 251 257 269 270 268 281 290 285 276 268 241 218 223 228 250 263 269 279 274 268 262 235 208 205 212 236 248 242 240 243 252 263 269 276 278 280 280 279 278 274 264 256 255 256 255 257 251 238 241 247 234 229 241 246 256 264 274 295 305 314 321 329 335 334 336 336 318 277 235 211 208 203 198 198 193 188 186 178 167 163 162 154 150 166 176 176 183 185 174 177 191 191 190 203 221 232
252 247 242 254 254 254 278 302 297 281 255 229 220 222 225 253 260 266 277 283 275 227 202 201 203 208 225 221 217 229 239 241 242 248 265 268 267 276 278 274 270 264 259 266 270 264 263 260 246 245 249 235 223 233 239 248 257 267 285 296 305 315 326 336 338 339 342 347 0 121 134 127 122 117 127 143 156 165 167 162 156 147 136 126 125 125 125 138 146 142 148 158 157 151 162 200 226
262 248 240 253 255 252 265 277 285 288 263 251 246 244 265 282 257 260 266 288 281 211 194 201 192 194 200 183 162 161 181 188 188 184 197 208 214 236 250 251 253 257 261 266 272 272 268 263 251 246 247 240 223 223 232 241 249 260 276 288 299 311 323 334 339 342 350 36 91 103 101 91 87 85 93 105 120 136 145 151 154 151 146 138 132 126 119 118 119 121 125 133 142 143 147 177 212
254 243 246 263 271 251 248 256 270 275 268 314 300 268 267 254 245 260 258 278 273 220 198 192 187 190 189 174 156 151 164 167 159 160 176 189 194 210 227 240 248 259 268 268 270 272 267 262 256 246 244 240 224 216 223 233 241 254 268 281 293 305 319 332 339 344 2 76 99 95 88 78 75 76 81 89 96 106 120 128 134 137 138 138 134 132 130 122 120 121 122 132 143 147 156 179 195
228 255 274 282 332 296 252 260 278 256 267 282 284 281 279 259 251 256 249 257 254 212 203 199 195 198 201 200 202 203 200 197 193 196 204 210 211 225 252 264 264 263 264 263 261 260 260 262 261 255 246 236 220 209 216 227 237 248 261 273 283 298 313 324 333 340 10 91 106 98 92 85 82 85 85 88 92 95 103 110 114 119 120 120 117 113 111 108 107 107 106 111 116 125 145 173 197
223 236 253 239 228 58 256 270 222 262 275 279 282 279 280 275 261 248 238 248 267 235 218 210 204 206 210 213 220 227 228 226 227 228 230 235 240 249 264 270 270 270 265 261 260 260 260 260 260 262 253 234 218 205 207 220 231 237 246 261 272 288 302 311 325 332 0 107 120 111 104 99 93 91 89 88 90 92 95 99 103 105 105 104 101 98 95 93 92 92 89 86 86 86 84 80 75
257 241 237 229 212 173 196 255 157 225 310 304 296 264 233 277 269 239 228 223 228 214 197 194 197 204 209 211 220 227 230 234 237 239 245 252 257 263 267 265 268 274 274 271 271 267 255 246 249 249 242 229 216 205 206 215 222 222 224 245 262 275 287 296 310 311 288 144 133 122 111 106 98 92 90 87 86 86 89 93 94 95 95 95 93 91 89 87 85 84 82 79 77 74 71 68 65
279 259 229 223 220 191 212 240 241 269 333 309 282 262 264 279 241 196 198 196 198 197 197 201 197 197 201 206 216 222 226 232 237 244 253 261 270 275 275 275 276 277 278 276 273 262 244 232 238 240 236 229 215 209 215 219 217 210 206 229 250 261 273 282 278 250 223 197 153 136 125 114 104 96 90 85 83 82 83 87 90 92 92 91 90 89 87 85 83 81 78 74 72 70 67 64 62
291 265 228 220 235 230 230 240 252 279 320 273 259 263 265 254 234 225 204 193 199 202 205 205 198 195 194 197 208 214 217 227 239 252 262 267 275 279 280 284 284 282 283 278 269 263 249 235 247 251 247 242 221 214 220 222 215 202 196 213 237 250 262 265 253 235 218 217 191 159 147 132 118 107 97 88 83 82 83 84 85 88 91 92 92 91 89 87 83 79 75 71 68 65 62 60 59
337 256 287 292 229 218 218 216 225 270 265 240 237 253 258 245 231 222 204 194 202 213 219 218 211 214 219 218 219 220 225 238 250 258 263 266 272 277 280 281 282 283 284 279 269 267 265 257 256 252 252 258 234 218 218 218 209 192 189 207 226 238 249 251 245 235 221 222 225 202 171 150 137 127 112 102 94 90 89 88 85 84 86 89 91 91 91 88 83 77 72 67 62 58 54 51 49
280 256 299 314 247 216 211 204 201 188 214 255 242 246 265 261 211 199 205 209 213 216 217 218 220 224 230 229 226 230 237 244 250 252 256 264 268 274 277 277 283 285 286 289 280 272 273 270 260 250 250 264 249 220 216 217 210 188 185 208 222 230 240 243 242 238 232 227 229 228 213 185 165 167 183 146 122 107 99 94 88 85 87 88 88 87 86 82 76 69 62 56 52 48 44 40 37
276 254 271 278 262 277 258 214 213 204 199 253 272 259 330 11 8 283 250 230 219 216 213 216 217 214 217 222 225 234 242 240 242 244 247 257 264 272 280 285 297 301 304 316 306 286 281 277 271 263 251 252 238 216 216 221 216 196 187 205 219 223 230 237 240 241 240 237 239 241 241 239 239 247 257 262 266 266 255 258 350 45 94 96 93 90 87 73 57 42 33 31 31 28 24 24 22
288 267 264 260 254 271 280 264 288 323 170 170 46 309 330 9 15 346 295 229 212 218 210 201 204 209 217 224 230 236 237 232 237 240 241 251 260 273 287 296 306 316 327 343 334 309 294 284 277 262 250 251 236 224 222 219 214 204 195 204 218 221 223 231 238 242 244 244 246 249 251 255 261 265 261 251 253 263 262 260 263 261 262 264 262 260 259 264 279 287 297 310 318 326 336 341 343
299 293 278 270 308 308 295 314 321 329 319 237 116 239 278 316 339 357 26 124 214 227 212 193 201 226 238 237 235 234 232 232 236 238 243 252 261 271 284 291 295 305 321 341 347 334 318 299 269 231 228 235 230 234 233 221 216 213 205 204 214 221 223 230 238 243 246 247 248 250 253 258 264 269 268 258 249 250 254 254 254 253 255 259 264 268 271 269 269 271 274 280 286 291 295 298 304